Location: Unspecified
(0.0000°N, 0.0000°E)
Time: 20:02:27
(UTC+00:00)

Vanguard 2 Rocket - Pass Details

Date: 14 December 2017
Orbit: 556 x 3326 km, 32.9° (Epoch: 21 January)

Event Time Altitude Azimuth Distance (km) Brightness Sun altitude
Rises 17:16:00 0° 267° (W) 3,731 11.6 8.9°
Reaches altitude 10° 17:18:35 10° 279° (W) 3,068 10.8 8.3°
Maximum altitude 17:25:21 31° 338° (NNW) 2,572 9.3 6.8°
Drops below altitude 10° 17:36:10 10° 34° (NE) 4,954 10.2 4.3°
Sets 17:41:47 0° 43° (NE) 6,434 10.6 3.0°
